User: anonymous   Login
Location: Christchurch
(43.5330°S, 172.6330°E)
Time: 23:36:52
(UTC+13:00)
Language:

Cosmos 841 Rocket - Orbit

View from above orbital plane
View from above orbital plane
View from above satellite
View from above satellite

Ground track
Ground track

The orbit data is extracted from the following two-line orbital elements,

1  9023U 76069B   19287.17026252  .00000073  00000-0  31879-4 0  9996
2  9023  74.0434 329.7981 0018904 284.7320  75.1740 14.39633061266997
Epoch (UTC): 14 October 2019 04:05:10
Eccentricity: 0.0018904
inclination: 74.0434°
perigee height: 746 km
apogee height: 773 km
right ascension of ascending node: 329.7981°
argument of perigee: 284.7320°
revolutions per day: 14.39633061
mean anomaly at epoch: 75.1740°
orbit number at epoch: 26699

The dashed part of the orbit path shows where the satellite is in the earth's shadow,  

DLR